CW6090 Weather Reports


time (UTC)temp
F
wind
direction
speed
knots
gust
knots
rain 1hr
in
rain 24hr
in
rain mn
in
humidity
%
barometer
mb
20260508145616 54 296 1.7 3.5 0.00 0.00 0.00 49 1018.2
20260508145113 54 270 3.5 3.5 0.00 0.00 0.00 47 1018.2
20260508144611 54 286 1.7 2.6 0.00 0.00 0.00 48 1018.1
20260508144108 53 278 0.9 1.7 0.00 0.00 0.00 50 1018.0
20260508143606 52 292 0.0 1.7 0.00 0.00 0.00 51 1018.1
20260508143102 53 249 1.7 2.6 0.00 0.00 0.00 51 1018.1
20260508142559 52 288 0.0 0.9 0.00 0.00 0.00 49 1018.1
20260508142055 51 309 0.9 1.7 0.00 0.00 0.00 49 1018.0
20260508141552 51 290 0.9 0.9 0.00 0.00 0.00 54 1018.1
20260508141049 51 261 1.7 1.7 0.00 0.00 0.00 60 1018.1
20260508140547 51 288 0.0 1.7 0.00 0.00 0.00 53 1018.1
20260508140043 50 266 0.9 1.7 0.00 0.00 0.00 54 1018.2
20260508135538 50 236 1.7 2.6 0.00 0.00 0.00 53 1018.5
20260508135035 49 266 0.9 0.9 0.00 0.00 0.00 64 1018.2
20260508134532 49 275 0.9 0.9 0.00 0.00 0.00 63 1018.0
20260508134029 49 291 0.0 0.9 0.00 0.00 0.00 55 1018.2
20260508133526 48 279 0.9 0.9 0.00 0.00 0.00 66 1018.0
20260508133023 47 287 0.0 0.0 0.00 0.00 0.00 67 1018.1
20260508132521 46 284 0.9 0.9 0.00 0.00 0.00 69 1018.2
20260508132017 46 299 0.0 0.0 0.00 0.00 0.00 75 1017.8
20260508131512 45 302 0.0 0.0 0.00 0.00 0.00 77 1017.9
20260508131009 45 297 0.9 0.9 0.00 0.00 0.00 80 1017.9
20260508130507 44 297 0.0 0.9 0.00 0.00 0.00 81 1017.8
20260508130002 44 302 0.0 0.0 0.00 0.00 0.00 82 1017.9
20260508125458 43 302 0.0 0.0 0.00 0.00 0.00 84 1017.9
20260508124956 42 305 0.0 0.0 0.00 0.00 0.00 87 1017.9
20260508124454 42 299 0.0 0.0 0.00 0.00 0.00 87 1017.8
20260508123951 41 300 0.0 0.9 0.00 0.00 0.00 88 1017.7
20260508123450 40 305 0.0 0.9 0.00 0.00 0.00 91 1017.6
20260508122946 39 308 0.0 0.9 0.00 0.00 0.00 95 1017.8
20260508122443 38 305 0.0 0.9 0.00 0.00 0.00 98 1017.7
20260508121940 38 301 0.0 0.0 0.00 0.00 0.00 99 1017.6
20260508121438 38 302 0.0 0.0 0.00 0.00 0.00 99 1017.5
20260508120936 37 299 0.0 0.0 0.00 0.00 0.00 99 1017.5
20260508120433 37 297 0.9 0.9 0.00 0.00 0.00 99 1017.4
20260508115931 36 302 0.0 0.0 0.00 0.00 0.00 99 1017.6
20260508115429 36 301 0.0 0.0 0.00 0.00 0.00 99 1017.4
20260508114925 36 300 0.0 0.0 0.00 0.00 0.00 99 1017.2
20260508114422 35 309 0.9 0.9 0.00 0.00 0.00 99 1017.2
20260508113918 35 308 0.0 0.9 0.00 0.00 0.00 99 1017.0
20260508113416 35 308 0.9 0.9 0.00 0.00 0.00 99 1017.0
20260508112913 35 309 0.9 0.9 0.00 0.00 0.00 99 1016.9
20260508112410 35 310 0.9 0.9 0.00 0.00 0.00 99 1017.2
20260508111907 35 308 0.9 0.9 0.00 0.00 0.00 99 1016.9
20260508111403 35 306 0.0 0.9 0.00 0.00 0.00 99 1016.8
20260508110900 35 310 0.9 0.9 0.00 0.00 0.00 99 1016.9
20260508110358 35 305 0.0 0.0 0.00 0.00 0.00 99 1016.7
20260508105858 35 304 0.0 0.0 0.00 0.00 0.00 99 1016.8
20260508105354 35 306 0.9 0.9 0.00 0.00 0.00 99 1016.7
20260508104852 35 307 0.9 0.9 0.00 0.00 0.00 99 1016.4
20260508104349 35 301 0.0 0.0 0.00 0.00 0.00 99 1016.5
20260508103846 36 300 0.0 0.0 0.00 0.00 0.00 99 1016.4
20260508103343 36 307 0.9 1.7 0.00 0.00 0.00 99 1016.4
20260508102840 35 311 0.9 0.9 0.00 0.00 0.00 99 1016.4
20260508102338 35 299 0.0 0.0 0.00 0.00 0.00 99 1016.4
20260508101835 35 301 0.0 0.9 0.00 0.00 0.00 99 1016.3
20260508101333 36 301 0.0 0.0 0.00 0.00 0.00 99 1016.1
20260508100830 36 305 0.0 0.9 0.00 0.00 0.00 99 1016.1
20260508100329 35 302 0.0 0.0 0.00 0.00 0.00 99 1016.0
20260508095824 35 295 0.0 0.0 0.00 0.00 0.00 99 1016.1
20260508095322 35 291 0.0 0.9 0.00 0.00 0.00 99 1016.0
20260508094819 36 302 0.0 0.0 0.00 0.00 0.00 99 1016.0
20260508094316 36 295 0.0 0.0 0.00 0.00 0.00 99 1016.1
20260508093812 36 295 0.0 0.0 0.00 0.00 0.00 99 1016.1
20260508093310 37 297 0.0 0.0 0.00 0.00 0.00 99 1015.6
20260508092807 37 295 0.0 0.0 0.00 0.00 0.00 99 1015.8
20260508092312 37 303 0.0 0.0 0.00 0.00 0.00 98 1016.0
20260508091803 38 305 0.0 0.9 0.00 0.00 0.00 98 1015.8
20260508091259 38 305 0.0 0.9 0.00 0.00 0.00 98 1016.1
20260508090757 38 299 0.0 0.0 0.00 0.00 0.00 98 1015.8
20260508090255 39 302 0.0 0.9 0.00 0.00 0.00 98 1015.8
20260508085750 39 308 0.9 0.9 0.00 0.00 0.00 98 1015.8
20260508085248 39 309 0.9 0.9 0.00 0.00 0.00 97 1015.8
20260508084744 39 304 0.0 0.0 0.00 0.00 0.00 97 1016.0
20260508084242 40 302 0.0 0.9 0.00 0.00 0.00 97 1016.1
20260508083739 40 309 0.9 0.9 0.00 0.00 0.00 98 1015.8
20260508083237 40 305 0.0 0.9 0.00 0.00 0.00 98 1015.7
20260508082736 40 309 0.9 0.9 0.00 0.00 0.00 99 1015.6
20260508082235 40 313 0.9 0.9 0.00 0.00 0.00 99 1015.6
20260508081731 40 306 0.9 0.9 0.00 0.00 0.00 99 1016.0
20260508081228 40 301 0.0 0.9 0.00 0.00 0.00 99 1015.8
20260508080725 40 303 0.0 0.9 0.00 0.00 0.00 99 1016.0
20260508080223 40 304 0.9 0.9 0.00 0.00 0.00 99 1015.7
20260508075719 40 302 0.9 0.9 0.00 0.00 0.00 99 1015.8
20260508075217 40 304 0.9 0.9 0.00 0.00 0.00 99 1016.1
20260508074714 40 304 0.9 0.9 0.00 0.00 0.00 99 1015.6
20260508074212 40 305 0.9 0.9 0.00 0.00 0.00 99 1015.7
20260508073708 40 304 0.0 0.9 0.00 0.00 0.00 99 1015.6
20260508073207 40 300 0.0 0.9 0.00 0.00 0.00 99 1015.6
20260508072702 40 304 0.9 0.9 0.00 0.00 0.00 99 1015.5
20260508072159 40 301 0.9 1.7 0.00 0.00 0.00 99 1016.0
20260508071656 40 300 0.0 0.9 0.00 0.00 0.00 99 1016.0
20260508071155 41 301 0.9 0.9 0.00 0.00 0.00 99 1016.1
20260508070652 41 303 0.9 1.7 0.00 0.00 0.00 99 1015.8
20260508070150 40 302 0.9 0.9 0.00 0.00 0.00 99 1015.7
20260508065647 40 300 0.9 0.9 0.00 0.00 0.00 99 1016.1
20260508065145 40 299 0.0 0.9 0.00 0.00 0.00 99 1016.0
20260508064642 41 298 0.0 0.0 0.00 0.00 0.00 99 1016.0
20260508064140 41 296 0.0 0.0 0.00 0.00 0.00 99 1015.8
20260508063637 41 298 0.0 0.0 0.00 0.00 0.00 99 1016.3
20260508063135 41 299 0.0 0.0 0.00 0.00 0.00 99 1016.0
20260508062633 41 297 0.0 0.0 0.00 0.00 0.00 99 1016.1
20260508062129 41 298 0.0 0.9 0.00 0.00 0.00 99 1016.0
20260508061626 41 296 0.0 0.0 0.00 0.00 0.00 99 1015.8
20260508061124 41 299 0.0 0.9 0.00 0.00 0.00 99 1015.8
20260508060620 41 297 0.0 0.0 0.00 0.00 0.00 99 1016.1
20260508060118 42 297 0.0 0.9 0.00 0.00 0.00 99 1016.1
20260508055613 41 300 0.0 0.9 0.00 0.00 0.00 99 1016.1
20260508055110 42 297 0.0 0.0 0.00 0.00 0.00 99 1016.0
20260508054607 42 295 0.0 0.0 0.00 0.00 0.00 99 1016.1
20260508054104 42 301 0.9 0.9 0.00 0.00 0.00 99 1016.0
20260508053601 42 300 0.0 0.0 0.00 0.00 0.00 99 1016.1
20260508053059 42 300 0.0 0.9 0.00 0.00 0.00 99 1016.0
20260508052556 42 292 0.0 0.0 0.00 0.00 0.00 99 1016.1
20260508052053 42 297 0.0 0.0 0.00 0.00 0.00 99 1016.0
20260508051549 42 296 0.0 0.0 0.00 0.00 0.00 99 1016.0
20260508051045 43 294 0.0 0.0 0.00 0.00 0.00 99 1016.1
20260508050541 42 300 0.9 0.9 0.00 0.00 0.00 99 1015.8
20260508050038 42 294 0.0 0.0 0.00 0.00 0.00 99 1015.7
20260508045534 42 293 0.0 0.0 0.00 0.00 0.00 99 1015.8
20260508045032 42 291 0.0 0.0 0.00 0.00 0.00 99 1015.7
20260508044529 43 291 0.0 0.9 0.00 0.00 0.00 98 1015.6
20260508044025 43 296 0.0 0.0 0.00 0.00 0.00 98 1015.7
20260508043522 43 296 0.0 0.9 0.00 0.00 0.00 98 1015.5
20260508043019 44 297 0.0 0.9 0.00 0.00 0.00 98 1015.4
20260508042516 43 300 0.0 0.9 0.00 0.00 0.00 99 1015.4
20260508042013 43 302 0.0 0.9 0.00 0.00 0.00 99 1015.5
20260508041509 43 299 0.0 0.9 0.00 0.00 0.00 98 1015.5
20260508041006 43 299 0.0 0.9 0.00 0.00 0.00 98 1015.4
20260508040503 43 299 0.0 0.9 0.00 0.00 0.00 98 1015.2
20260508040001 43 304 0.9 0.9 0.00 0.03 0.03 98 1015.3
20260508035458 44 299 0.0 0.9 0.00 0.03 0.03 98 1015.2
20260508034954 44 306 0.9 1.7 0.00 0.03 0.03 99 1015.3
20260508034452 43 304 0.9 0.9 0.00 0.03 0.03 99 1015.4
20260508033948 43 301 0.0 0.9 0.00 0.03 0.03 99 1015.5
20260508033447 43 300 0.0 0.9 0.00 0.03 0.03 99 1015.5
20260508032944 43 303 0.9 0.9 0.00 0.03 0.03 99 1015.4
20260508032441 42 291 0.0 0.0 0.00 0.03 0.03 99 1015.4
20260508031938 43 296 0.0 0.9 0.00 0.03 0.03 99 1015.3
20260508031435 43 278 0.9 0.9 0.00 0.03 0.03 99 1015.3
20260508030930 43 296 0.0 0.9 0.00 0.03 0.03 98 1015.3
20260508030428 43 299 0.0 0.0 0.00 0.03 0.03 98 1015.3
20260508025925 43 296 0.0 0.0 0.00 0.03 0.03 98 1015.1
20260508025422 43 297 0.0 0.0 0.00 0.03 0.03 98 1015.2
20260508024918 43 299 0.0 0.0 0.00 0.03 0.03 98 1014.8
20260508024416 43 301 0.0 0.9 0.00 0.03 0.03 98 1015.0
20260508023912 43 304 0.0 0.0 0.00 0.03 0.03 98 1015.0
20260508023409 43 305 0.0 0.9 0.00 0.03 0.03 98 1015.0
20260508022906 43 301 0.0 0.0 0.00 0.03 0.03 97 1014.9
20260508022401 43 299 0.0 0.9 0.00 0.03 0.03 97 1015.0
20260508021858 43 301 0.0 0.0 0.00 0.03 0.03 97 1014.8
20260508021354 44 305 0.0 0.0 0.00 0.03 0.03 96 1014.8
20260508020850 44 301 0.0 0.0 0.00 0.03 0.03 96 1014.6
20260508020348 44 301 0.0 0.0 0.00 0.03 0.03 95 1014.5
20260508015845 44 297 0.0 0.0 0.00 0.03 0.03 95 1014.5
20260508015343 44 296 0.0 0.0 0.00 0.03 0.03 95 1014.5
20260508014839 45 299 0.0 0.0 0.00 0.03 0.03 94 1014.4
20260508014337 45 299 0.0 0.0 0.00 0.03 0.03 93 1014.5
20260508013837 46 299 0.0 0.9 0.00 0.03 0.03 93 1014.2
20260508013334 46 316 0.9 0.9 0.00 0.03 0.03 93 1014.1
20260508012831 46 311 0.9 0.9 0.00 0.03 0.03 93 1014.3
20260508012328 46 308 0.9 0.9 0.00 0.03 0.03 92 1014.2
20260508011826 46 305 0.0 0.9 0.00 0.03 0.03 92 1013.9
20260508011324 46 309 0.9 0.9 0.00 0.03 0.03 91 1014.0
20260508010820 46 308 0.9 0.9 0.00 0.03 0.03 91 1013.8
20260508010318 47 302 0.0 0.9 0.00 0.03 0.03 90 1013.7
20260508005815 47 305 0.0 0.9 0.00 0.03 0.03 89 1013.6
20260508005312 47 302 0.0 0.0 0.00 0.03 0.03 89 1013.6
20260508004808 47 300 0.0 0.0 0.00 0.03 0.03 88 1013.7
20260508004304 48 296 0.0 0.0 0.00 0.03 0.03 88 1013.7
20260508003801 48 299 0.0 0.9 0.00 0.03 0.03 87 1013.5
20260508003259 49 314 0.9 0.9 0.00 0.03 0.03 86 1013.6
20260508002755 49 299 0.0 0.9 0.00 0.03 0.03 85 1013.6
20260508002252 49 302 0.0 0.9 0.00 0.03 0.03 84 1013.7
20260508001748 49 299 0.0 0.9 0.00 0.03 0.03 83 1013.5
20260508001243 49 314 0.9 1.7 0.00 0.03 0.03 84 1013.7
20260508000740 50 302 0.0 1.7 0.00 0.03 0.03 84 1013.6
20260508000237 50 306 0.9 0.9 0.00 0.03 0.03 83 1013.7
20260507235733 49 314 1.7 1.7 0.00 0.03 0.03 84 1013.3
20260507235231 50 324 1.7 1.7 0.00 0.03 0.03 82 1013.7
20260507234728 50 321 1.7 1.7 0.00 0.03 0.03 82 1013.6
20260507234224 50 333 0.9 2.6 0.00 0.03 0.03 82 1013.7
20260507233721 50 311 0.9 2.6 0.00 0.03 0.03 81 1013.7
20260507233219 50 300 0.9 3.5 0.00 0.03 0.03 80 1013.8
20260507232716 50 314 1.7 1.7 0.00 0.03 0.03 80 1013.7
20260507232213 50 38 1.7 2.6 0.00 0.03 0.03 79 1013.6
20260507231710 50 301 0.9 2.6 0.00 0.03 0.03 80 1013.5
20260507231207 50 299 0.9 1.7 0.00 0.03 0.03 80 1013.5
20260507230703 51 2 3.5 3.5 0.00 0.03 0.03 81 1013.6
20260507230200 50 324 2.6 2.6 0.00 0.03 0.03 81 1013.6
20260507225700 51 300 0.0 1.7 0.00 0.03 0.03 80 1013.6
20260507225157 51 339 1.7 2.6 0.00 0.03 0.03 80 1013.2
20260507224652 51 314 2.6 3.5 0.00 0.03 0.03 80 1013.6
20260507224149 51 310 0.9 2.6 0.00 0.03 0.03 80 1013.5
20260507223645 51 311 1.7 1.7 0.00 0.03 0.03 79 1013.2
20260507223142 52 335 1.7 1.7 0.00 0.03 0.03 77 1013.1
20260507222639 51 306 0.9 3.5 0.00 0.03 0.03 78 1013.2
20260507222136 52 286 1.7 1.7 0.00 0.03 0.03 80 1013.1
20260507221632 51 301 0.0 1.7 0.00 0.03 0.03 82 1013.0
20260507221128 51 300 0.9 0.9 0.00 0.03 0.03 82 1013.0
20260507220626 51 318 1.7 2.6 0.00 0.03 0.03 82 1012.9
20260507220123 51 309 0.9 1.7 0.00 0.03 0.03 82 1012.9
20260507215619 51 327 0.9 2.6 0.00 0.03 0.03 82 1012.9
20260507215117 51 312 1.7 2.6 0.00 0.03 0.03 81 1013.0
20260507214614 51 320 0.9 5.2 0.00 0.03 0.03 82 1012.8
20260507214110 51 310 0.0 2.6 0.00 0.03 0.03 80 1012.9
20260507213607 53 297 1.7 5.2 0.00 0.03 0.03 79 1012.6
20260507213104 52 300 1.7 2.6 0.00 0.03 0.03 78 1012.4
20260507212600 51 343 1.7 2.6 0.00 0.03 0.03 81 1012.6
20260507212057 50 301 0.0 2.6 0.00 0.03 0.03 84 1012.5
20260507211553 50 353 1.7 3.5 0.00 0.03 0.03 85 1012.5
20260507211049 50 70 3.5 5.2 0.00 0.03 0.03 84 1012.3
20260507210547 50 303 0.9 6.1 0.00 0.03 0.03 85 1012.4
20260507210043 50 348 1.7 5.2 0.00 0.03 0.03 85 1012.4
20260507205540 51 305 1.7 6.1 0.00 0.03 0.03 86 1012.1
20260507205037 52 294 1.7 7.0 0.00 0.03 0.03 84 1011.9
20260507204533 54 311 3.5 5.2 0.00 0.03 0.03 81 1011.9
20260507204031 55 3 4.3 6.1 0.00 0.03 0.03 79 1011.8
20260507203528 57 334 5.2 6.1 0.00 0.03 0.03 75 1011.6
20260507203026 59 312 3.5 5.2 0.00 0.03 0.03 73 1011.7
20260507202521 59 288 0.9 1.7 0.00 0.03 0.03 73 1011.4
20260507202017 57 276 0.9 5.2 0.00 0.03 0.03 78 1011.4
20260507201513 57 299 4.3 7.8 0.00 0.03 0.03 77 1011.5
20260507201010 57 299 3.5 5.2 0.00 0.03 0.03 78 1011.5
20260507200505 60 322 1.7 5.2 0.00 0.03 0.03 73 1011.3
20260507200001 61 295 1.7 2.6 0.00 0.03 0.03 72 1011.5
20260507195459 62 305 1.7 2.6 0.00 0.03 0.03 72 1011.3
20260507194956 62 309 0.9 5.2 0.00 0.03 0.03 72 1011.2
20260507194452 61 257 1.7 3.5 0.00 0.03 0.03 74 1011.6
20260507193948 62 289 0.9 3.5 0.00 0.03 0.03 72 1011.5
20260507193446 62 303 1.7 2.6 0.00 0.03 0.03 71 1011.3
20260507192942 62 294 1.7 5.2 0.00 0.03 0.03 73 1011.4
20260507192438 62 276 0.0 1.7 0.00 0.03 0.03 73 1011.4
20260507191936 61 316 2.6 3.5 0.00 0.03 0.03 74 1011.6
20260507191431 61 270 0.9 2.6 0.00 0.03 0.03 73 1011.4
20260507190928 63 279 2.6 6.1 0.00 0.03 0.03 75 1011.5
20260507190426 64 251 2.6 3.5 0.00 0.03 0.03 68 1011.6
20260507185925 62 277 2.6 3.5 0.00 0.03 0.03 73 1011.7
20260507185422 62 301 2.6 7.0 0.00 0.03 0.03 73 1011.6
20260507184918 63 286 0.9 1.7 0.00 0.03 0.03 73 1011.5
20260507184416 62 318 2.6 6.1 0.00 0.03 0.03 72 1011.8
20260507183914 64 312 1.7 6.1 0.00 0.03 0.03 70 1011.6
20260507183410 64 4 3.5 5.2 0.00 0.03 0.03 70 1011.6
20260507182908 63 315 1.7 3.5 0.00 0.03 0.03 71 1011.6
20260507182403 64 247 3.5 5.2 0.00 0.03 0.03 71 1011.6
20260507181900 62 305 0.9 6.1 0.00 0.03 0.03 74 1011.7
20260507181356 63 297 1.7 2.6 0.00 0.03 0.03 74 1011.6
20260507180853 62 289 0.9 2.6 0.00 0.03 0.03 77 1011.5
20260507180349 62 263 1.7 3.5 0.00 0.03 0.03 76 1011.6
20260507175845 60 300 0.9 2.6 0.00 0.03 0.03 79 1011.6
20260507175342 60 253 1.7 3.5 0.00 0.03 0.03 80 1011.7
20260507174840 60 292 0.9 3.5 0.00 0.03 0.03 80 1011.6
20260507174337 60 304 0.9 1.7 0.00 0.03 0.03 81 1011.5
20260507173835 61 258 1.7 2.6 0.00 0.03 0.03 80 1011.4
20260507173332 62 308 1.7 3.5 0.00 0.03 0.03 78 1011.3
20260507172828 63 304 1.7 2.6 0.00 0.03 0.03 78 1011.4
20260507172325 62 290 1.7 1.7 0.00 0.03 0.03 78 1011.2
20260507171820 61 297 0.9 2.6 0.00 0.03 0.03 81 1011.2
20260507171318 62 324 1.7 2.6 0.00 0.03 0.03 80 1011.4
20260507170814 62 299 0.9 1.7 0.00 0.03 0.03 82 1011.2
20260507170311 62 241 1.7 3.5 0.00 0.03 0.03 83 1011.3
20260507165807 62 224 2.6 2.6 0.00 0.03 0.03 82 1011.2
20260507165306 63 234 2.6 2.6 0.00 0.03 0.03 80 1011.2
20260507164759 62 304 1.7 2.6 0.00 0.03 0.03 83 1011.1
20260507164256 63 254 2.6 2.6 0.00 0.03 0.03 83 1011.4
20260507163753 65 315 1.7 2.6 0.00 0.03 0.03 79 1011.2
20260507163251 66 221 2.6 7.8 0.00 0.03 0.03 80 1011.3
20260507162747 65 187 1.7 2.6 0.00 0.03 0.03 76 1011.1
20260507162243 65 296 0.9 2.6 0.00 0.03 0.03 83 1011.2
20260507161740 65 283 0.0 2.6 0.00 0.03 0.03 77 1011.2
20260507161237 62 326 1.7 2.6 0.00 0.03 0.03 82 1010.9
20260507160732 62 314 0.9 2.6 0.00 0.03 0.03 83 1011.1
20260507160229 61 303 0.9 1.7 0.00 0.03 0.03 86 1011.1
20260507155725 62 306 1.7 2.6 0.00 0.03 0.03 85 1011.2
20260507155221 61 319 1.7 2.6 0.00 0.03 0.03 85 1011.2
20260507154718 61 291 0.9 1.7 0.00 0.03 0.03 85 1011.2
20260507154216 60 317 1.7 2.6 0.00 0.03 0.03 88 1011.2
20260507153712 59 323 0.9 1.7 0.00 0.03 0.03 91 1011.3
20260507153209 59 318 1.7 1.7 0.00 0.03 0.03 90 1011.4
20260507152705 59 303 0.9 1.7 0.00 0.03 0.03 91 1011.3
20260507152201 60 342 1.7 3.5 0.00 0.03 0.03 89 1011.3
20260507151657 61 300 0.0 0.9 0.00 0.03 0.03 90 1011.4
20260507151154 60 292 0.0 0.9 0.00 0.03 0.03 94 1011.2
20260507150651 60 289 0.0 2.6 0.00 0.03 0.03 93 1011.1
20260507150148 60 300 0.0 0.9 0.00 0.03 0.03 91 1011.4
20260507145643 60 295 0.9 0.9 0.00 0.03 0.03 93 1011.2